Time,TemperatureF,DewpointF,PressureIn,WindDirection,WindDirectionDegrees,WindSpeedMPH,WindSpeedGustMPH,Humidity,HourlyPrecipIn,Conditions,Clouds,dailyrainin,SoftwareType,DateUTC
2013-09-01 00:01:00,54.1,40.1,30.01,NNW,337,0.0,0.0,59,0.00,,,0.00,VWS V14.01,2013-08-31 23:01:00,
2013-09-01 00:07:00,54.1,40.1,30.01,NNW,337,0.0,0.0,59,0.00,,,0.00,VWS V14.01,2013-08-31 23:07:00,
2013-09-01 00:13:00,54.1,40.5,30.01,NNW,337,0.0,0.0,60,0.00,,,0.00,VWS V14.01,2013-08-31 23:13:00,
2013-09-01 00:19:00,54.1,40.5,30.01,North,0,0.0,0.0,60,0.00,,,0.00,VWS V14.01,2013-08-31 23:19:00,
2013-09-01 00:24:00,54.1,41.0,30.01,NNW,337,0.0,0.0,61,0.00,,,0.00,VWS V14.01,2013-08-31 23:24:00,
2013-09-01 00:30:00,54.1,40.5,30.01,NNW,337,0.0,0.0,60,0.00,,,0.00,VWS V14.01,2013-08-31 23:30:00,
2013-09-01 00:35:00,53.8,40.7,30.01,North,0,0.0,0.0,61,0.00,,,0.00,VWS V14.01,2013-08-31 23:35:00,
2013-09-01 00:41:00,53.4,40.7,30.01,NNW,337,0.0,0.0,62,0.00,,,0.00,VWS V14.01,2013-08-31 23:41:00,
2013-09-01 00:46:00,53.6,40.9,30.01,NNW,337,0.0,0.0,62,0.00,,,0.00,VWS V14.01,2013-08-31 23:46:00,
2013-09-01 00:52:00,53.4,40.7,30.01,North,0,0.0,0.0,62,0.00,,,0.00,VWS V14.01,2013-08-31 23:52:00,
2013-09-01 00:58:00,53.2,40.5,30.01,NNW,337,0.0,0.0,62,0.00,,,0.00,VWS V14.01,2013-08-31 23:58:00,
2013-09-01 01:04:00,52.7,40.5,30.01,NNW,337,0.0,0.0,63,0.00,,,0.00,VWS V14.01,2013-09-01 00:04:00,
2013-09-01 01:09:00,52.3,40.1,30.01,NNW,337,0.0,0.0,63,0.00,,,0.00,VWS V14.01,2013-09-01 00:09:00,
2013-09-01 01:14:00,52.2,40.0,30.01,NNW,337,0.0,0.0,63,0.00,,,0.00,VWS V14.01,2013-09-01 00:14:00,
2013-09-01 01:20:00,52.0,40.2,30.01,NNW,337,0.0,0.0,64,0.00,,,0.00,VWS V14.01,2013-09-01 00:20:00,
2013-09-01 01:25:00,51.8,40.0,30.01,NNW,337,0.0,0.0,64,0.00,,,0.00,VWS V14.01,2013-09-01 00:25:00,
2013-09-01 01:31:00,51.6,40.2,30.01,NNW,337,0.0,0.0,65,0.00,,,0.00,VWS V14.01,2013-09-01 00:31:00,
2013-09-01 01:37:00,51.6,40.6,30.01,NNW,337,0.0,0.0,66,0.00,,,0.00,VWS V14.01,2013-09-01 00:37:00,
2013-09-01 01:43:00,51.4,40.4,30.01,NNW,337,0.0,0.0,66,0.00,,,0.00,VWS V14.01,2013-09-01 00:43:00,
2013-09-01 01:48:00,51.4,40.4,30.01,NNW,337,0.0,0.0,66,0.00,,,0.00,VWS V14.01,2013-09-01 00:48:00,
2013-09-01 01:54:00,51.4,40.8,30.01,NNW,337,0.0,0.0,67,0.00,,,0.00,VWS V14.01,2013-09-01 00:54:00,
2013-09-01 02:00:00,51.3,40.7,30.02,NNW,337,0.0,0.0,67,0.00,,,0.00,VWS V14.01,2013-09-01 01:00:00,
2013-09-01 02:06:00,51.1,40.9,30.01,NNW,337,0.0,0.0,68,0.00,,,0.00,VWS V14.01,2013-09-01 01:06:00,
2013-09-01 02:11:00,51.1,40.9,30.01,NNW,337,0.0,0.0,68,0.00,,,0.00,VWS V14.01,2013-09-01 01:11:00,
2013-09-01 02:17:00,51.1,41.3,30.01,NNW,337,0.0,0.0,69,0.00,,,0.00,VWS V14.01,2013-09-01 01:17:00,
2013-09-01 02:22:00,51.1,41.3,30.02,North,0,0.0,0.0,69,0.00,,,0.00,VWS V14.01,2013-09-01 01:22:00,
2013-09-01 02:27:00,51.1,41.3,30.02,North,0,0.0,0.0,69,0.00,,,0.00,VWS V14.01,2013-09-01 01:27:00,
2013-09-01 02:33:00,51.1,41.3,30.01,North,0,0.0,0.0,69,0.00,,,0.00,VWS V14.01,2013-09-01 01:33:00,
2013-09-01 02:38:00,50.9,41.1,30.01,North,0,0.0,0.0,69,0.00,,,0.00,VWS V14.01,2013-09-01 01:38:00,
2013-09-01 02:44:00,50.7,40.9,30.01,North,0,0.0,0.0,69,0.00,,,0.00,VWS V14.01,2013-09-01 01:44:00,
2013-09-01 02:49:00,50.5,40.7,30.02,North,0,0.0,0.0,69,0.00,,,0.00,VWS V14.01,2013-09-01 01:49:00,
2013-09-01 02:55:00,50.5,41.5,30.02,SSW,202,0.0,0.0,71,0.00,,,0.00,VWS V14.01,2013-09-01 01:55:00,
2013-09-01 03:01:00,50.7,41.7,30.02,SSW,202,0.0,0.0,71,0.00,,,0.00,VWS V14.01,2013-09-01 02:01:00,
2013-09-01 03:07:00,50.5,41.5,30.02,SSW,202,0.0,0.0,71,0.00,,,0.00,VWS V14.01,2013-09-01 02:07:00,
2013-09-01 03:12:00,50.5,41.5,30.02,SSW,202,0.0,0.0,71,0.00,,,0.00,VWS V14.01,2013-09-01 02:12:00,
2013-09-01 03:17:00,50.2,41.2,30.02,SSW,202,0.0,0.0,71,0.00,,,0.00,VWS V14.01,2013-09-01 02:17:00,
2013-09-01 03:22:00,50.2,41.2,30.02,SSW,202,0.0,0.0,71,0.00,,,0.00,VWS V14.01,2013-09-01 02:22:00,
2013-09-01 03:28:00,49.8,41.2,30.02,SSW,202,0.0,0.0,72,0.00,,,0.00,VWS V14.01,2013-09-01 02:28:00,
2013-09-01 03:33:00,49.6,41.0,30.02,SSW,202,0.0,0.0,72,0.00,,,0.00,VWS V14.01,2013-09-01 02:33:00,
2013-09-01 03:39:00,49.5,41.2,30.02,SSW,202,0.0,0.0,73,0.00,,,0.00,VWS V14.01,2013-09-01 02:39:00,
2013-09-01 03:45:00,49.3,41.0,30.02,SSW,202,0.0,0.0,73,0.00,,,0.00,VWS V14.01,2013-09-01 02:45:00,
2013-09-01 03:50:00,49.3,41.0,30.01,SSW,202,0.0,0.0,73,0.00,,,0.00,VWS V14.01,2013-09-01 02:50:00,
2013-09-01 03:55:00,49.1,41.2,30.01,SSW,202,0.0,0.0,74,0.00,,,0.00,VWS V14.01,2013-09-01 02:55:00,
2013-09-01 04:01:00,48.9,41.3,30.01,SSW,202,0.0,0.0,75,0.00,,,0.00,VWS V14.01,2013-09-01 03:01:00,
2013-09-01 04:07:00,48.9,41.7,30.01,SSW,202,0.0,0.0,76,0.00,,,0.00,VWS V14.01,2013-09-01 03:07:00,
2013-09-01 04:13:00,49.1,41.9,30.01,SSW,202,0.0,0.0,76,0.00,,,0.00,VWS V14.01,2013-09-01 03:13:00,
2013-09-01 04:19:00,49.1,41.9,30.01,SSW,202,0.0,0.0,76,0.00,,,0.00,VWS V14.01,2013-09-01 03:19:00,
2013-09-01 04:25:00,48.9,41.7,30.02,SSW,202,0.0,0.0,76,0.00,,,0.00,VWS V14.01,2013-09-01 03:25:00,
2013-09-01 04:31:00,48.9,41.7,30.02,SSW,202,0.0,0.0,76,0.00,,,0.00,VWS V14.01,2013-09-01 03:31:00,
2013-09-01 04:37:00,48.9,41.7,30.01,SSW,202,0.0,0.0,76,0.00,,,0.00,VWS V14.01,2013-09-01 03:37:00,
2013-09-01 04:43:00,48.7,41.5,30.01,SSW,202,0.0,0.0,76,0.00,,,0.00,VWS V14.01,2013-09-01 03:43:00,
2013-09-01 04:48:00,48.7,41.5,30.01,SW,225,0.0,0.0,76,0.00,,,0.00,VWS V14.01,2013-09-01 03:48:00,
2013-09-01 04:53:00,48.6,41.4,30.01,SW,225,0.0,0.0,76,0.00,,,0.00,VWS V14.01,2013-09-01 03:53:00,
2013-09-01 04:58:00,48.4,41.2,30.01,SW,225,0.0,0.0,76,0.00,,,0.00,VWS V14.01,2013-09-01 03:58:00,
2013-09-01 05:07:00,48.4,41.5,30.01,SW,225,0.0,0.0,77,0.00,,,0.00,VWS V14.01,2013-09-01 04:07:00,
2013-09-01 05:09:00,48.0,41.2,30.02,SW,225,0.0,0.0,77,0.00,,,0.00,VWS V14.01,2013-09-01 04:09:00,
2013-09-01 05:10:00,48.0,41.2,30.02,SW,225,0.0,0.0,77,0.00,,,0.00,VWS V14.01,2013-09-01 04:10:00,
2013-09-01 05:11:00,48.0,41.2,30.01,SW,225,0.0,0.0,77,0.00,,,0.00,VWS V14.01,2013-09-01 04:11:00,
2013-09-01 05:13:00,47.8,41.0,30.01,SW,225,0.0,0.0,77,0.00,,,0.00,VWS V14.01,2013-09-01 04:13:00,
2013-09-01 05:18:00,47.7,40.8,30.01,SW,225,0.0,0.0,77,0.00,,,0.00,VWS V14.01,2013-09-01 04:18:00,
2013-09-01 05:24:00,47.7,41.2,30.01,SW,225,0.0,0.0,78,0.00,,,0.00,VWS V14.01,2013-09-01 04:24:00,
2013-09-01 05:30:00,47.5,41.0,30.02,SW,225,0.0,0.0,78,0.00,,,0.00,VWS V14.01,2013-09-01 04:30:00,
2013-09-01 05:35:00,47.3,40.8,30.02,SW,225,0.0,0.0,78,0.00,,,0.00,VWS V14.01,2013-09-01 04:35:00,
2013-09-01 05:41:00,47.1,40.6,30.02,SW,225,0.0,0.0,78,0.00,,,0.00,VWS V14.01,2013-09-01 04:41:00,
2013-09-01 05:47:00,47.1,40.6,30.02,SSW,202,0.0,0.0,78,0.00,,,0.00,VWS V14.01,2013-09-01 04:47:00,
2013-09-01 05:52:00,47.1,40.9,30.03,SSW,202,0.0,0.0,79,0.00,,,0.00,VWS V14.01,2013-09-01 04:52:00,
2013-09-01 05:57:00,47.1,40.6,30.02,SSW,202,0.0,0.0,78,0.00,,,0.00,VWS V14.01,2013-09-01 04:57:00,
2013-09-01 06:02:00,47.1,40.6,30.02,SSW,202,0.0,0.0,78,0.00,,,0.00,VWS V14.01,2013-09-01 05:02:00,
2013-09-01 06:08:00,47.1,40.9,30.03,SSW,202,0.0,0.0,79,0.00,,,0.00,VWS V14.01,2013-09-01 05:08:00,
2013-09-01 06:13:00,46.9,40.7,30.02,SSW,202,0.0,0.0,79,0.00,,,0.00,VWS V14.01,2013-09-01 05:13:00,
2013-09-01 06:19:00,47.1,40.9,30.03,SSW,202,0.0,0.0,79,0.00,,,0.00,VWS V14.01,2013-09-01 05:19:00,
2013-09-01 06:24:00,47.1,40.9,30.02,SSW,202,0.0,0.0,79,0.00,,,0.00,VWS V14.01,2013-09-01 05:24:00,
2013-09-01 06:29:00,47.1,40.9,30.03,SSW,202,0.0,0.0,79,0.00,,,0.00,VWS V14.01,2013-09-01 05:29:00,
2013-09-01 06:34:00,47.1,40.9,30.03,SSW,202,0.0,0.0,79,0.00,,,0.00,VWS V14.01,2013-09-01 05:34:00,
2013-09-01 06:40:00,47.3,41.1,30.03,SSW,202,0.0,0.0,79,0.00,,,0.00,VWS V14.01,2013-09-01 05:40:00,
2013-09-01 06:45:00,47.3,41.1,30.03,SSW,202,0.0,0.0,79,0.00,,,0.00,VWS V14.01,2013-09-01 05:45:00,
2013-09-01 06:51:00,47.5,41.3,30.03,SSW,202,0.0,0.0,79,0.00,,,0.00,VWS V14.01,2013-09-01 05:51:00,
2013-09-01 06:56:00,47.7,41.5,30.03,SSW,202,0.0,0.0,79,0.00,,,0.00,VWS V14.01,2013-09-01 05:56:00,
2013-09-01 07:01:00,48.0,41.8,30.03,SSW,202,0.0,0.0,79,0.00,,,0.00,VWS V14.01,2013-09-01 06:01:00,
2013-09-01 07:07:00,48.2,42.0,30.03,South,180,0.0,0.0,79,0.00,,,0.00,VWS V14.01,2013-09-01 06:07:00,
2013-09-01 07:12:00,48.7,42.2,30.04,South,180,0.0,0.0,78,0.00,,,0.00,VWS V14.01,2013-09-01 06:12:00,
2013-09-01 07:18:00,48.9,42.3,30.05,South,180,0.0,0.0,78,0.00,,,0.00,VWS V14.01,2013-09-01 06:18:00,
2013-09-01 07:24:00,49.3,42.7,30.05,South,180,0.0,0.0,78,0.00,,,0.00,VWS V14.01,2013-09-01 06:24:00,
2013-09-01 07:30:00,49.6,42.7,30.05,South,180,0.0,0.0,77,0.00,,,0.00,VWS V14.01,2013-09-01 06:30:00,
2013-09-01 07:35:00,50.2,43.3,30.05,South,180,0.0,0.0,77,0.00,,,0.00,VWS V14.01,2013-09-01 06:35:00,
2013-09-01 07:41:00,50.4,43.1,30.04,SSW,202,0.0,0.0,76,0.00,,,0.00,VWS V14.01,2013-09-01 06:41:00,
2013-09-01 07:47:00,50.7,43.1,30.05,SSW,202,0.0,0.0,75,0.00,,,0.00,VWS V14.01,2013-09-01 06:47:00,
2013-09-01 07:52:00,51.1,43.5,30.05,SSW,202,0.0,0.0,75,0.00,,,0.00,VWS V14.01,2013-09-01 06:52:00,
2013-09-01 07:58:00,51.6,44.0,30.05,SSW,202,0.0,0.0,75,0.00,,,0.00,VWS V14.01,2013-09-01 06:58:00,
2013-09-01 08:04:00,52.2,44.2,30.04,SW,225,0.0,0.0,74,0.00,,,0.00,VWS V14.01,2013-09-01 07:04:00,
2013-09-01 08:09:00,52.5,44.1,30.04,SW,225,0.0,0.0,73,0.00,,,0.00,VWS V14.01,2013-09-01 07:09:00,
2013-09-01 08:15:00,53.2,44.4,30.04,SSW,202,0.0,0.0,72,0.00,,,0.00,VWS V14.01,2013-09-01 07:15:00,
2013-09-01 08:21:00,54.0,44.8,30.05,SSW,202,0.0,0.0,71,0.00,,,0.00,VWS V14.01,2013-09-01 07:21:00,
2013-09-01 08:26:00,54.9,45.3,30.05,SW,225,0.0,0.0,70,0.00,,,0.00,VWS V14.01,2013-09-01 07:26:00,
2013-09-01 08:31:00,55.6,45.6,30.05,SW,225,0.0,0.0,69,0.00,,,0.00,VWS V14.01,2013-09-01 07:31:00,
2013-09-01 08:37:00,56.1,45.3,30.05,North,0,0.0,0.0,67,0.00,,,0.00,VWS V14.01,2013-09-01 07:37:00,
2013-09-01 08:43:00,56.3,45.5,30.05,North,0,0.0,0.0,67,0.00,,,0.00,VWS V14.01,2013-09-01 07:43:00,
2013-09-01 08:49:00,56.8,45.6,30.05,SSW,202,0.0,0.0,66,0.00,,,0.00,VWS V14.01,2013-09-01 07:49:00,
2013-09-01 08:55:00,57.6,46.3,30.05,SSW,202,0.0,0.0,66,0.00,,,0.00,VWS V14.01,2013-09-01 07:55:00,
2013-09-01 09:01:00,58.6,46.5,30.05,North,0,0.0,0.0,64,0.00,,,0.00,VWS V14.01,2013-09-01 08:01:00,
2013-09-01 09:06:00,58.8,47.1,30.06,North,0,0.0,0.0,65,0.00,,,0.00,VWS V14.01,2013-09-01 08:06:00,
2013-09-01 09:12:00,60.4,47.8,30.06,North,0,0.0,0.0,63,0.00,,,0.00,VWS V14.01,2013-09-01 08:12:00,
2013-09-01 09:18:00,61.3,47.8,30.05,SSW,202,0.0,0.0,61,0.00,,,0.00,VWS V14.01,2013-09-01 08:18:00,
2013-09-01 09:24:00,61.9,47.9,30.05,North,0,0.0,0.0,60,0.00,,,0.00,VWS V14.01,2013-09-01 08:24:00,
2013-09-01 09:29:00,62.1,48.1,30.05,North,0,0.0,0.0,60,0.00,,,0.00,VWS V14.01,2013-09-01 08:29:00,
2013-09-01 09:35:00,62.4,47.5,30.04,SSW,202,0.0,0.0,58,0.00,,,0.00,VWS V14.01,2013-09-01 08:35:00,
2013-09-01 09:41:00,62.8,48.3,30.05,SSW,202,0.0,0.0,59,0.00,,,0.00,VWS V14.01,2013-09-01 08:41:00,
2013-09-01 09:47:00,63.7,48.2,30.05,SSW,202,0.0,0.0,57,0.00,,,0.00,VWS V14.01,2013-09-01 08:47:00,
2013-09-01 09:52:00,64.2,48.7,30.05,SSW,202,0.0,0.0,57,0.00,,,0.00,VWS V14.01,2013-09-01 08:52:00,
2013-09-01 09:58:00,65.1,48.5,30.05,SSW,202,0.0,0.0,55,0.00,,,0.00,VWS V14.01,2013-09-01 08:58:00,
2013-09-01 10:03:00,64.8,48.3,30.05,North,0,0.0,0.0,55,0.00,,,0.00,VWS V14.01,2013-09-01 09:03:00,
2013-09-01 10:09:00,64.8,48.3,30.05,North,0,0.0,0.0,55,0.00,,,0.00,VWS V14.01,2013-09-01 09:09:00,
2013-09-01 10:15:00,65.5,48.9,30.05,North,0,0.0,0.0,55,0.00,,,0.00,VWS V14.01,2013-09-01 09:15:00,
2013-09-01 10:21:00,65.7,48.1,30.05,SSW,202,0.0,0.0,53,0.00,,,0.00,VWS V14.01,2013-09-01 09:21:00,
2013-09-01 10:26:00,65.5,48.4,30.05,North,0,0.0,0.0,54,0.00,,,0.00,VWS V14.01,2013-09-01 09:26:00,
2013-09-01 10:32:00,65.1,47.1,30.05,North,0,0.0,0.0,52,0.00,,,0.00,VWS V14.01,2013-09-01 09:32:00,
2013-09-01 10:38:00,64.9,47.4,30.04,North,0,0.0,0.0,53,0.00,,,0.00,VWS V14.01,2013-09-01 09:38:00,
2013-09-01 10:43:00,65.3,48.2,30.04,SSW,202,0.0,0.0,54,0.00,,,0.00,VWS V14.01,2013-09-01 09:43:00,
2013-09-01 10:49:00,64.9,46.9,30.04,North,0,0.0,0.0,52,0.00,,,0.00,VWS V14.01,2013-09-01 09:49:00,
2013-09-01 10:55:00,64.4,45.9,30.04,SW,225,0.0,0.0,51,0.00,,,0.00,VWS V14.01,2013-09-01 09:55:00,
2013-09-01 11:00:00,64.6,46.1,30.04,North,0,0.0,0.0,51,0.00,,,0.00,VWS V14.01,2013-09-01 10:00:00,
2013-09-01 11:06:00,64.2,45.7,30.03,North,0,0.0,0.0,51,0.00,,,0.00,VWS V14.01,2013-09-01 10:06:00,
2013-09-01 11:12:00,64.2,45.7,30.03,SW,225,0.0,0.0,51,0.00,,,0.00,VWS V14.01,2013-09-01 10:12:00,
2013-09-01 11:17:00,63.7,44.7,30.03,SW,225,0.0,0.0,50,0.00,,,0.00,VWS V14.01,2013-09-01 10:17:00,
2013-09-01 11:23:00,63.5,45.6,30.03,NNW,337,0.0,0.0,52,0.00,,,0.00,VWS V14.01,2013-09-01 10:23:00,
2013-09-01 11:29:00,63.5,45.6,30.04,North,0,0.0,0.0,52,0.00,,,0.00,VWS V14.01,2013-09-01 10:29:00,
2013-09-01 11:35:00,63.7,46.3,30.03,North,0,0.0,0.0,53,0.00,,,0.00,VWS V14.01,2013-09-01 10:35:00,
2013-09-01 11:40:00,64.0,45.5,30.03,North,0,0.0,0.0,51,0.00,,,0.00,VWS V14.01,2013-09-01 10:40:00,
2013-09-01 11:45:00,64.0,45.0,30.04,SW,225,0.0,0.0,50,0.00,,,0.00,VWS V14.01,2013-09-01 10:45:00,
2013-09-01 11:50:00,64.0,45.5,30.03,SSW,202,0.0,0.0,51,0.00,,,0.00,VWS V14.01,2013-09-01 10:50:00,
2013-09-01 11:56:00,64.2,46.2,30.03,North,0,0.0,0.0,52,0.00,,,0.00,VWS V14.01,2013-09-01 10:56:00,
2013-09-01 12:01:00,64.9,46.4,30.03,SSW,202,0.0,0.0,51,0.00,,,0.00,VWS V14.01,2013-09-01 11:01:00,
2013-09-01 12:06:00,65.1,46.5,30.03,SSW,202,0.0,0.0,51,0.00,,,0.00,VWS V14.01,2013-09-01 11:06:00,
2013-09-01 12:12:00,65.5,46.9,30.02,SW,225,0.0,0.0,51,0.00,,,0.00,VWS V14.01,2013-09-01 11:12:00,
2013-09-01 12:18:00,66.2,47.0,30.03,SSW,202,0.0,0.0,50,0.00,,,0.00,VWS V14.01,2013-09-01 11:18:00,
2013-09-01 12:24:00,66.0,46.8,30.03,SSW,202,0.0,0.0,50,0.00,,,0.00,VWS V14.01,2013-09-01 11:24:00,
2013-09-01 12:30:00,66.4,46.7,30.02,North,0,0.0,0.0,49,0.00,,,0.00,VWS V14.01,2013-09-01 11:30:00,
2013-09-01 12:35:00,66.6,46.9,30.03,SW,225,0.0,0.0,49,0.00,,,0.00,VWS V14.01,2013-09-01 11:35:00,
2013-09-01 12:40:00,66.4,46.7,30.02,North,0,0.0,0.0,49,0.00,,,0.00,VWS V14.01,2013-09-01 11:40:00,
2013-09-01 12:46:00,66.2,47.0,30.01,North,0,0.0,0.0,50,0.00,,,0.00,VWS V14.01,2013-09-01 11:46:00,
2013-09-01 12:52:00,66.4,47.2,30.02,SW,225,0.0,0.0,50,0.00,,,0.00,VWS V14.01,2013-09-01 11:52:00,
2013-09-01 12:57:00,66.0,46.8,30.01,North,0,0.0,0.0,50,0.00,,,0.00,VWS V14.01,2013-09-01 11:57:00,
2013-09-01 13:02:00,66.0,47.4,30.01,North,0,0.0,0.0,51,0.00,,,0.00,VWS V14.01,2013-09-01 12:02:00,
2013-09-01 13:08:00,66.9,48.2,30.01,SSW,202,0.0,0.0,51,0.00,,,0.00,VWS V14.01,2013-09-01 12:08:00,
2013-09-01 13:14:00,67.3,47.0,30.01,NNW,337,0.0,0.0,48,0.00,,,0.00,VWS V14.01,2013-09-01 12:14:00,
2013-09-01 13:20:00,67.3,47.5,30.01,SSW,202,0.0,0.0,49,0.00,,,0.00,VWS V14.01,2013-09-01 12:20:00,
2013-09-01 13:25:00,67.8,47.4,30.01,WNW,292,0.0,0.0,48,0.00,,,0.00,VWS V14.01,2013-09-01 12:25:00,
2013-09-01 13:31:00,67.8,47.4,30.00,NNW,337,0.0,0.0,48,0.00,,,0.00,VWS V14.01,2013-09-01 12:31:00,
2013-09-01 13:36:00,68.4,47.4,30.00,North,0,0.0,0.0,47,0.00,,,0.00,VWS V14.01,2013-09-01 12:36:00,
2013-09-01 13:41:00,69.1,47.5,30.00,WNW,292,0.0,0.0,46,0.00,,,0.00,VWS V14.01,2013-09-01 12:41:00,
2013-09-01 13:47:00,70.3,48.0,30.00,NW,315,0.0,0.0,45,0.00,,,0.00,VWS V14.01,2013-09-01 12:47:00,
2013-09-01 13:53:00,70.9,47.3,30.00,SSW,202,0.0,0.0,43,0.00,,,0.00,VWS V14.01,2013-09-01 12:53:00,
2013-09-01 13:58:00,70.9,47.3,30.00,WNW,292,0.0,0.0,43,0.00,,,0.00,VWS V14.01,2013-09-01 12:58:00,
2013-09-01 14:03:00,70.9,47.3,30.00,West,270,0.0,0.0,43,0.00,,,0.00,VWS V14.01,2013-09-01 13:03:00,
2013-09-01 14:09:00,71.2,46.3,30.00,North,0,0.0,0.0,41,0.00,,,0.00,VWS V14.01,2013-09-01 13:09:00,
2013-09-01 14:14:00,72.1,47.1,30.00,West,270,0.0,0.0,41,0.00,,,0.00,VWS V14.01,2013-09-01 13:14:00,
2013-09-01 14:20:00,72.7,47.0,29.99,West,270,0.0,0.0,40,0.00,,,0.00,VWS V14.01,2013-09-01 13:20:00,
2013-09-01 14:26:00,73.0,47.3,30.00,WNW,292,0.0,0.0,40,0.00,,,0.00,VWS V14.01,2013-09-01 13:26:00,
2013-09-01 14:32:00,74.1,47.6,29.99,SSW,202,0.0,0.0,39,0.00,,,0.00,VWS V14.01,2013-09-01 13:32:00,
2013-09-01 14:37:00,74.8,47.5,29.99,North,0,0.0,0.0,38,0.00,,,0.00,VWS V14.01,2013-09-01 13:37:00,
2013-09-01 14:42:00,74.1,46.9,30.00,SSW,202,0.0,0.0,38,0.00,,,0.00,VWS V14.01,2013-09-01 13:42:00,
2013-09-01 14:47:00,75.0,47.7,30.00,SSW,202,0.0,0.0,38,0.00,,,0.00,VWS V14.01,2013-09-01 13:47:00,
2013-09-01 14:53:00,74.8,48.2,30.00,SW,225,0.0,0.0,39,0.00,,,0.00,VWS V14.01,2013-09-01 13:53:00,
2013-09-01 14:59:00,75.4,48.0,29.99,WNW,292,0.0,0.0,38,0.00,,,0.00,VWS V14.01,2013-09-01 13:59:00,
2013-09-01 15:05:00,75.0,47.7,29.99,WNW,292,0.0,0.0,38,0.00,,,0.00,VWS V14.01,2013-09-01 14:05:00,
2013-09-01 15:10:00,74.5,47.2,29.99,North,0,0.0,0.0,38,0.00,,,0.00,VWS V14.01,2013-09-01 14:10:00,
2013-09-01 15:16:00,73.8,47.3,29.99,SSW,202,0.0,0.0,39,0.00,,,0.00,VWS V14.01,2013-09-01 14:16:00,
2013-09-01 15:22:00,73.4,47.0,29.98,WNW,292,0.0,0.0,39,0.00,,,0.00,VWS V14.01,2013-09-01 14:22:00,
2013-09-01 15:28:00,72.7,47.0,29.98,SSW,202,0.0,0.0,40,0.00,,,0.00,VWS V14.01,2013-09-01 14:28:00,
2013-09-01 15:34:00,72.7,47.0,29.98,SSW,202,0.0,0.0,40,0.00,,,0.00,VWS V14.01,2013-09-01 14:34:00,
2013-09-01 15:39:00,73.0,46.6,29.98,SW,225,0.0,0.0,39,0.00,,,0.00,VWS V14.01,2013-09-01 14:39:00,
2013-09-01 15:45:00,72.7,46.3,29.97,SSW,202,0.0,0.0,39,0.00,,,0.00,VWS V14.01,2013-09-01 14:45:00,
2013-09-01 15:51:00,72.7,46.3,29.98,SW,225,0.0,0.0,39,0.00,,,0.00,VWS V14.01,2013-09-01 14:51:00,
2013-09-01 15:57:00,74.3,47.8,29.97,SW,225,0.0,0.0,39,0.00,,,0.00,VWS V14.01,2013-09-01 14:57:00,
2013-09-01 16:03:00,75.9,47.8,29.96,South,180,0.0,0.0,37,0.00,,,0.00,VWS V14.01,2013-09-01 15:03:00,
2013-09-01 16:08:00,76.1,47.2,29.97,West,270,0.0,0.0,36,0.00,,,0.00,VWS V14.01,2013-09-01 15:08:00,
2013-09-01 16:13:00,76.6,46.9,29.96,West,270,0.0,0.0,35,0.00,,,0.00,VWS V14.01,2013-09-01 15:13:00,
2013-09-01 16:19:00,76.3,47.4,29.96,West,270,0.0,0.0,36,0.00,,,0.00,VWS V14.01,2013-09-01 15:19:00,
2013-09-01 16:24:00,76.8,47.8,29.96,SSW,202,0.0,0.0,36,0.00,,,0.00,VWS V14.01,2013-09-01 15:24:00,
2013-09-01 16:30:00,77.4,47.6,29.96,SSW,202,0.0,0.0,35,0.00,,,0.00,VWS V14.01,2013-09-01 15:30:00,
2013-09-01 16:35:00,76.6,46.9,29.96,SSW,202,0.0,0.0,35,0.00,,,0.00,VWS V14.01,2013-09-01 15:35:00,
2013-09-01 16:41:00,76.1,48.0,29.95,SSW,202,0.0,0.0,37,0.00,,,0.00,VWS V14.01,2013-09-01 15:41:00,
2013-09-01 16:47:00,77.9,48.1,29.96,SSW,202,0.0,0.0,35,0.00,,,0.00,VWS V14.01,2013-09-01 15:47:00,
2013-09-01 16:52:00,77.7,47.9,29.95,South,180,0.0,0.0,35,0.00,,,0.00,VWS V14.01,2013-09-01 15:52:00,
2013-09-01 16:58:00,77.5,47.7,29.95,SW,225,0.0,0.0,35,0.00,,,0.00,VWS V14.01,2013-09-01 15:58:00,
2013-09-01 17:04:00,77.2,48.2,29.94,West,270,0.0,0.0,36,0.00,,,0.00,VWS V14.01,2013-09-01 16:04:00,
2013-09-01 17:09:00,76.5,46.8,29.94,West,270,0.0,0.0,35,0.00,,,0.00,VWS V14.01,2013-09-01 16:09:00,
2013-09-01 17:14:00,74.8,46.8,29.94,SSW,202,0.0,0.0,37,0.00,,,0.00,VWS V14.01,2013-09-01 16:14:00,
2013-09-01 17:20:00,73.8,46.6,29.94,West,270,0.0,0.0,38,0.00,,,0.00,VWS V14.01,2013-09-01 16:20:00,
2013-09-01 17:25:00,72.7,47.0,29.94,SW,225,0.0,0.0,40,0.00,,,0.00,VWS V14.01,2013-09-01 16:25:00,
2013-09-01 17:30:00,72.1,46.5,29.94,SSW,202,0.0,0.0,40,0.00,,,0.00,VWS V14.01,2013-09-01 16:30:00,
2013-09-01 17:35:00,71.4,45.8,29.94,WNW,292,0.0,0.0,40,0.00,,,0.00,VWS V14.01,2013-09-01 16:35:00,
2013-09-01 17:41:00,70.9,46.0,29.94,SW,225,0.0,0.0,41,0.00,,,0.00,VWS V14.01,2013-09-01 16:41:00,
2013-09-01 17:47:00,70.5,45.7,29.95,North,0,0.0,0.0,41,0.00,,,0.00,VWS V14.01,2013-09-01 16:47:00,
2013-09-01 17:53:00,70.2,46.1,29.94,North,0,0.0,0.0,42,0.00,,,0.00,VWS V14.01,2013-09-01 16:53:00,
2013-09-01 17:58:00,69.8,46.3,29.94,SSW,202,0.0,0.0,43,0.00,,,0.00,VWS V14.01,2013-09-01 16:58:00,
2013-09-01 18:04:00,69.3,46.5,29.94,WNW,292,0.0,0.0,44,0.00,,,0.00,VWS V14.01,2013-09-01 17:04:00,
2013-09-01 18:09:00,69.1,46.3,29.93,SSW,202,0.0,0.0,44,0.00,,,0.00,VWS V14.01,2013-09-01 17:09:00,
2013-09-01 18:14:00,68.9,46.7,29.94,South,180,0.0,0.0,45,0.00,,,0.00,VWS V14.01,2013-09-01 17:14:00,
2013-09-01 18:20:00,68.7,46.5,29.94,SSW,202,0.0,0.0,45,0.00,,,0.00,VWS V14.01,2013-09-01 17:20:00,
2013-09-01 18:26:00,68.4,46.2,29.94,SSW,202,0.0,0.0,45,0.00,,,0.00,VWS V14.01,2013-09-01 17:26:00,
2013-09-01 18:31:00,68.2,46.7,29.94,SSW,202,0.0,0.0,46,0.00,,,0.00,VWS V14.01,2013-09-01 17:31:00,
2013-09-01 18:36:00,67.8,46.3,29.94,SSW,202,0.0,0.0,46,0.00,,,0.00,VWS V14.01,2013-09-01 17:36:00,
2013-09-01 18:41:00,67.8,46.9,29.94,SSW,202,0.0,0.0,47,0.00,,,0.00,VWS V14.01,2013-09-01 17:41:00,
2013-09-01 18:46:00,67.8,46.9,29.93,WNW,292,0.0,0.0,47,0.00,,,0.00,VWS V14.01,2013-09-01 17:46:00,
2013-09-01 18:52:00,67.6,46.7,29.93,SSW,202,0.0,0.0,47,0.00,,,0.00,VWS V14.01,2013-09-01 17:52:00,
2013-09-01 18:58:00,67.3,46.4,29.93,SW,225,0.0,0.0,47,0.00,,,0.00,VWS V14.01,2013-09-01 17:58:00,
2013-09-01 19:03:00,66.9,46.6,29.94,SSW,202,0.0,0.0,48,0.00,,,0.00,VWS V14.01,2013-09-01 18:03:00,
2013-09-01 19:08:00,66.7,47.0,29.93,SSW,202,0.0,0.0,49,0.00,,,0.00,VWS V14.01,2013-09-01 18:08:00,
2013-09-01 19:14:00,66.4,47.2,29.93,SW,225,0.0,0.0,50,0.00,,,0.00,VWS V14.01,2013-09-01 18:14:00,
2013-09-01 19:19:00,66.0,46.8,29.93,North,0,0.0,0.0,50,0.00,,,0.00,VWS V14.01,2013-09-01 18:19:00,
2013-09-01 19:25:00,65.8,47.2,29.93,SSW,202,0.0,0.0,51,0.00,,,0.00,VWS V14.01,2013-09-01 18:25:00,
2013-09-01 19:30:00,65.3,47.2,29.94,SSW,202,0.0,0.0,52,0.00,,,0.00,VWS V14.01,2013-09-01 18:30:00,
2013-09-01 19:35:00,65.1,47.6,29.93,SSW,202,0.0,0.0,53,0.00,,,0.00,VWS V14.01,2013-09-01 18:35:00,
2013-09-01 19:41:00,64.6,47.6,29.93,SW,225,0.0,0.0,54,0.00,,,0.00,VWS V14.01,2013-09-01 18:41:00,
2013-09-01 19:46:00,64.2,47.2,29.93,North,0,0.0,0.0,54,0.00,,,0.00,VWS V14.01,2013-09-01 18:46:00,
2013-09-01 19:51:00,64.0,47.5,29.93,SW,225,0.0,0.0,55,0.00,,,0.00,VWS V14.01,2013-09-01 18:51:00,
2013-09-01 19:57:00,63.7,47.2,29.93,SSW,202,0.0,0.0,55,0.00,,,0.00,VWS V14.01,2013-09-01 18:57:00,
2013-09-01 20:03:00,63.5,47.5,29.94,SW,225,0.0,0.0,56,0.00,,,0.00,VWS V14.01,2013-09-01 19:03:00,
2013-09-01 20:09:00,63.5,47.5,29.94,SSW,202,0.0,0.0,56,0.00,,,0.00,VWS V14.01,2013-09-01 19:09:00,
2013-09-01 20:14:00,63.3,47.3,29.95,SSW,202,0.0,0.0,56,0.00,,,0.00,VWS V14.01,2013-09-01 19:14:00,
2013-09-01 20:19:00,63.1,47.6,29.95,SSW,202,0.0,0.0,57,0.00,,,0.00,VWS V14.01,2013-09-01 19:19:00,
2013-09-01 20:25:00,63.0,48.0,29.95,SSW,202,0.0,0.0,58,0.00,,,0.00,VWS V14.01,2013-09-01 19:25:00,
2013-09-01 20:31:00,62.8,47.8,29.95,NNW,337,0.0,0.0,58,0.00,,,0.00,VWS V14.01,2013-09-01 19:31:00,
2013-09-01 20:37:00,62.4,47.5,29.94,SW,225,0.0,0.0,58,0.00,,,0.00,VWS V14.01,2013-09-01 19:37:00,
2013-09-01 20:42:00,62.2,47.7,29.94,North,0,0.0,0.0,59,0.00,,,0.00,VWS V14.01,2013-09-01 19:42:00,
2013-09-01 20:47:00,62.1,48.1,29.94,SSW,202,0.0,0.0,60,0.00,,,0.00,VWS V14.01,2013-09-01 19:47:00,
2013-09-01 20:53:00,61.9,48.3,29.95,SSW,202,0.0,0.0,61,0.00,,,0.00,VWS V14.01,2013-09-01 19:53:00,
2013-09-01 20:59:00,61.7,48.1,29.95,SSW,202,0.0,0.0,61,0.00,,,0.00,VWS V14.01,2013-09-01 19:59:00,
2013-09-01 21:05:00,61.5,48.4,29.95,North,0,0.0,0.0,62,0.00,,,0.00,VWS V14.01,2013-09-01 20:05:00,
2013-09-01 21:10:00,61.3,48.2,29.95,SW,225,0.0,0.0,62,0.00,,,0.00,VWS V14.01,2013-09-01 20:10:00,
2013-09-01 21:16:00,61.2,48.1,29.96,SSW,202,0.0,0.0,62,0.00,,,0.00,VWS V14.01,2013-09-01 20:16:00,
2013-09-01 21:22:00,61.0,48.3,29.96,SSW,202,0.0,0.0,63,0.00,,,0.00,VWS V14.01,2013-09-01 20:22:00,
2013-09-01 21:28:00,60.8,48.1,29.95,SW,225,0.0,0.0,63,0.00,,,0.00,VWS V14.01,2013-09-01 20:28:00,
2013-09-01 21:34:00,60.6,48.0,29.95,SSW,202,0.0,0.0,63,0.00,,,0.00,VWS V14.01,2013-09-01 20:34:00,
2013-09-01 21:39:00,60.4,48.2,29.95,SW,225,0.0,0.0,64,0.00,,,0.00,VWS V14.01,2013-09-01 20:39:00,
2013-09-01 21:45:00,60.3,48.5,29.94,North,0,0.0,0.0,65,0.00,,,0.00,VWS V14.01,2013-09-01 20:45:00,
2013-09-01 21:51:00,59.9,48.5,29.95,North,0,0.0,0.0,66,0.00,,,0.00,VWS V14.01,2013-09-01 20:51:00,
2013-09-01 21:56:00,59.7,48.3,29.95,SSW,202,0.0,0.0,66,0.00,,,0.00,VWS V14.01,2013-09-01 20:56:00,
2013-09-01 22:01:00,59.5,48.2,29.95,North,0,0.0,0.0,66,0.00,,,0.00,VWS V14.01,2013-09-01 21:01:00,
2013-09-01 22:07:00,59.4,48.8,29.95,SW,225,0.0,0.0,68,0.00,,,0.00,VWS V14.01,2013-09-01 21:07:00,
2013-09-01 22:13:00,58.8,48.3,29.94,NNW,337,0.0,0.0,68,0.00,,,0.00,VWS V14.01,2013-09-01 21:13:00,
2013-09-01 22:18:00,58.8,48.7,29.95,SW,225,0.0,0.0,69,0.00,,,0.00,VWS V14.01,2013-09-01 21:18:00,
2013-09-01 22:24:00,58.8,48.7,29.95,SW,225,0.0,0.0,69,0.00,,,0.00,VWS V14.01,2013-09-01 21:24:00,
2013-09-01 22:30:00,58.8,49.0,29.95,SW,225,0.0,0.0,70,0.00,,,0.00,VWS V14.01,2013-09-01 21:30:00,
2013-09-01 22:36:00,58.8,49.4,29.95,North,0,0.0,0.0,71,0.00,,,0.00,VWS V14.01,2013-09-01 21:36:00,
2013-09-01 22:42:00,58.8,49.4,29.96,NNW,337,0.0,0.0,71,0.00,,,0.00,VWS V14.01,2013-09-01 21:42:00,
2013-09-01 22:47:00,58.8,49.4,29.96,South,180,0.0,0.0,71,0.00,,,0.00,VWS V14.01,2013-09-01 21:47:00,
2013-09-01 22:53:00,58.8,49.4,29.95,SSW,202,0.0,0.0,71,0.00,,,0.00,VWS V14.01,2013-09-01 21:53:00,
2013-09-01 22:59:00,58.8,49.4,29.95,SSW,202,0.0,0.0,71,0.00,,,0.00,VWS V14.01,2013-09-01 21:59:00,
2013-09-01 23:04:00,58.8,49.8,29.96,South,180,0.0,0.0,72,0.00,,,0.00,VWS V14.01,2013-09-01 22:04:00,
2013-09-01 23:09:00,58.8,49.8,29.95,SW,225,0.0,0.0,72,0.00,,,0.00,VWS V14.01,2013-09-01 22:09:00,
2013-09-01 23:14:00,58.5,49.5,29.95,North,0,0.0,0.0,72,0.00,,,0.00,VWS V14.01,2013-09-01 22:14:00,
2013-09-01 23:19:00,58.3,49.7,29.96,North,0,0.0,0.0,73,0.00,,,0.00,VWS V14.01,2013-09-01 22:19:00,
2013-09-01 23:25:00,57.9,49.3,29.95,SSW,202,0.0,0.0,73,0.00,,,0.00,VWS V14.01,2013-09-01 22:25:00,
2013-09-01 23:30:00,57.7,49.5,29.96,North,0,0.0,0.0,74,0.00,,,0.00,VWS V14.01,2013-09-01 22:30:00,
2013-09-01 23:35:00,57.6,49.4,29.95,SSW,202,0.0,0.0,74,0.00,,,0.00,VWS V14.01,2013-09-01 22:35:00,
2013-09-01 23:41:00,57.4,49.5,29.96,North,0,0.0,0.0,75,0.00,,,0.00,VWS V14.01,2013-09-01 22:41:00,
2013-09-01 23:47:00,57.4,49.5,29.95,North,0,0.0,0.0,75,0.00,,,0.00,VWS V14.01,2013-09-01 22:47:00,
2013-09-01 23:53:00,57.4,49.9,29.95,SSW,202,0.0,0.0,76,0.00,,,0.00,VWS V14.01,2013-09-01 22:53:00,
2013-09-01 23:59:00,57.2,49.7,29.95,North,0,0.0,0.0,76,0.00,,,0.00,VWS V14.01,2013-09-01 22:59:00,